TimeEST,TemperatureF,Dew PointF,Humidity,Sea Level PressureIn,VisibilityMPH,Wind Direction,Wind SpeedMPH,Gust SpeedMPH,PrecipitationIn,Events,Conditions,WindDirDegrees,DateUTC
12:02 AM,10.0,6.1,84,29.91,0.8,East,9.2,-,0.01,Snow,Light Snow,100,2013-12-17 05:02:00
12:55 AM,10.0,6.1,84,29.94,1.2,East,11.5,-,0.03,Snow,Light Snow,90,2013-12-17 05:55:00
1:28 AM,10.9,8.1,88,29.87,1.0,East,8.1,-,0.02,Snow,Light Snow,90,2013-12-17 06:28:00
1:55 AM,12.0,9.0,88,29.90,1.0,East,8.1,-,0.03,Snow,Light Snow,90,2013-12-17 06:55:00
2:27 AM,12.9,9.0,84,29.85,0.8,East,8.1,-,0.02,Snow,Light Snow,90,2013-12-17 07:27:00
2:37 AM,12.9,9.0,84,29.85,1.0,East,9.2,-,0.02,Snow,Light Snow,90,2013-12-17 07:37:00
2:51 AM,12.2,8.6,85,29.84,1.5,East,9.2,-,0.03,Snow,Light Snow,90,2013-12-17 07:51:00
2:55 AM,12.9,9.0,84,29.88,1.8,East,8.1,-,0.03,Snow,Light Snow,90,2013-12-17 07:55:00
3:04 AM,12.9,9.0,84,29.84,2.0,East,8.1,-,0.00,Snow,Light Snow,90,2013-12-17 08:04:00
3:29 AM,12.9,10.0,88,29.83,1.8,East,6.9,-,0.00,Snow,Light Snow,90,2013-12-17 08:29:00
3:55 AM,14.0,10.9,88,29.87,1.0,East,6.9,-,0.01,Snow,Light Snow,90,2013-12-17 08:55:00
4:25 AM,14.0,10.9,88,29.81,2.5,East,6.9,-,0.01,Snow,Light Snow,90,2013-12-17 09:25:00
4:55 AM,14.0,10.9,88,29.85,2.5,East,5.8,-,0.01,Snow,Light Snow,90,2013-12-17 09:55:00
5:40 AM,14.0,10.9,88,29.78,3.0,East,5.8,-,0.01,Snow,Light Snow,100,2013-12-17 10:40:00
5:52 AM,14.0,10.4,86,29.78,1.8,East,5.8,-,0.01,Snow,Light Snow,90,2013-12-17 10:52:00
5:53 AM,14.0,10.9,88,29.83,1.8,East,6.9,-,0.01,Snow,Light Snow,90,2013-12-17 10:53:00
6:06 AM,14.0,10.9,88,29.78,2.0,East,5.8,-,0.01,Snow,Light Snow,90,2013-12-17 11:06:00
6:17 AM,14.0,10.9,88,29.79,4.0,East,5.8,-,0.01,Snow,Light Snow,90,2013-12-17 11:17:00
6:53 AM,14.0,10.4,86,29.79,7.0,East,4.6,-,0.01,Snow,Light Snow,90,2013-12-17 11:53:00
6:55 AM,14.0,10.0,84,29.83,7.0,East,4.6,-,0.01,Snow,Light Snow,80,2013-12-17 11:55:00
7:47 AM,14.0,10.9,88,29.80,10.0,Calm,Calm,-,0.00,,Overcast,0,2013-12-17 12:47:00
7:55 AM,14.0,10.0,84,29.84,9.0,Calm,Calm,-,0.00,,Overcast,0,2013-12-17 12:55:00
8:36 AM,14.0,10.0,84,29.79,8.0,Variable,3.5,-,N/A,,Overcast,0,2013-12-17 13:36:00
8:55 AM,15.1,10.0,80,29.84,7.0,SW,8.1,-,N/A,,Overcast,220,2013-12-17 13:55:00
9:55 AM,14.0,9.0,80,29.84,10.0,SSW,5.8,-,N/A,,Mostly Cloudy,210,2013-12-17 14:55:00
10:07 AM,14.0,9.0,80,29.80,10.0,SSW,4.6,-,N/A,,Mostly Cloudy,210,2013-12-17 15:07:00
10:39 AM,15.1,10.0,80,29.80,9.0,South,3.5,-,N/A,,Overcast,190,2013-12-17 15:39:00
10:55 AM,15.1,10.0,80,29.83,10.0,Calm,Calm,-,N/A,,Overcast,0,2013-12-17 15:55:00
11:55 AM,16.0,10.9,81,29.83,10.0,WNW,3.5,-,N/A,,Overcast,290,2013-12-17 16:55:00
12:55 PM,17.1,12.0,81,29.81,9.0,Calm,Calm,-,N/A,,Overcast,0,2013-12-17 17:55:00
1:30 PM,18.0,12.0,78,29.77,9.0,North,3.5,-,N/A,,Overcast,360,2013-12-17 18:30:00
1:44 PM,18.0,12.9,81,29.77,10.0,Calm,Calm,-,N/A,,Overcast,0,2013-12-17 18:44:00
1:55 PM,18.0,12.9,81,29.80,10.0,Calm,Calm,-,N/A,,Overcast,0,2013-12-17 18:55:00
2:10 PM,18.0,12.9,81,29.75,10.0,Calm,Calm,-,N/A,,Overcast,0,2013-12-17 19:10:00
2:55 PM,18.0,14.0,84,29.80,8.0,SSE,4.6,-,N/A,,Overcast,150,2013-12-17 19:55:00
3:55 PM,17.1,14.0,88,29.81,6.0,SE,5.8,-,N/A,,Overcast,130,2013-12-17 20:55:00
4:55 PM,17.1,15.1,92,29.81,5.0,Calm,Calm,-,0.00,Snow,Light Snow,0,2013-12-17 21:55:00
5:55 PM,17.1,15.1,92,29.82,7.0,ESE,3.5,-,0.00,,Overcast,120,2013-12-17 22:55:00
6:55 PM,18.0,15.1,88,29.84,6.0,Calm,Calm,-,0.00,,Overcast,0,2013-12-17 23:55:00
7:32 PM,18.0,15.1,88,29.79,2.5,SSW,4.6,-,0.00,Snow,Light Snow,200,2013-12-18 00:32:00
7:51 PM,19.4,15.8,86,29.80,3.0,SSW,5.8,-,0.00,Snow,Light Snow,210,2013-12-18 00:51:00
7:55 PM,19.0,16.0,88,29.84,3.0,SSW,6.9,-,0.00,Snow,Light Snow,210,2013-12-18 00:55:00
8:38 PM,18.0,15.1,88,29.80,6.0,SW,5.8,-,0.00,,Overcast,220,2013-12-18 01:38:00
8:55 PM,18.0,15.1,88,29.84,6.0,SW,6.9,-,0.00,,Overcast,230,2013-12-18 01:55:00
9:28 PM,18.0,14.0,84,29.81,2.5,Calm,Calm,-,0.00,Snow,Light Snow,0,2013-12-18 02:28:00
9:51 PM,17.6,14.0,86,29.80,3.0,Calm,Calm,-,0.01,Snow,Light Snow,0,2013-12-18 02:51:00
9:55 PM,18.0,14.0,84,29.84,3.0,South,3.5,-,0.01,Snow,Light Snow,190,2013-12-18 02:55:00
10:24 PM,17.1,14.0,88,29.81,2.5,SSW,3.5,-,0.00,Snow,Light Snow,210,2013-12-18 03:24:00
10:28 PM,17.1,14.0,88,29.81,3.0,SW,4.6,-,0.00,Snow,Light Snow,220,2013-12-18 03:28:00
10:45 PM,18.0,14.0,84,29.81,4.0,Calm,Calm,-,0.00,Snow,Light Snow,0,2013-12-18 03:45:00
10:55 PM,17.1,14.0,88,29.85,5.0,Calm,Calm,-,0.00,Snow,Light Snow,0,2013-12-18 03:55:00
11:22 PM,18.0,15.1,88,29.81,1.8,SW,4.6,-,0.00,Snow,Light Snow,220,2013-12-18 04:22:00
11:41 PM,18.0,15.1,88,29.81,2.0,WSW,8.1,-,0.00,Snow,Light Snow,240,2013-12-18 04:41:00
11:45 PM,19.0,15.1,85,29.81,1.5,WSW,9.2,-,0.00,Snow,Light Snow,240,2013-12-18 04:45:00
11:55 PM,19.9,16.0,85,29.85,0.8,WSW,10.4,-,0.01,Snow,Light Snow,240,2013-12-18 04:55:00